Regional Weather Roundup
Issued by NWS

Home | Current Version | Previous Version | Text Only | Print | Product List | Glossary Off
Versions: 1 2 3 4 5 6 7 8 9 10 11 12 13 14 15 16 17 18 19 20 21 22 23 24 25 26 27 28 29 30 31 32 33 34 35 36 37 38 39 40 41 42 43 44 45 46 47 48 49 50

581
ASUS45 KBOU 200210
RWRCO

WEATHER ROUNDUP FOR COLORADO
NATIONAL WEATHER SERVICE DENVER/BOULDER CO
700 PM MST MON FEB 19 2018

NOTE: "FAIR" INDICATES FEW OR NO CLOUDS BELOW 12000 FEET WITH NO
SIGNIFICANT WEATHER AND/OR OBSTRUCTIONS TO VISIBILITY.

COZ001>005-013-030-031-200300-
...NORTHWEST COLORADO...

CITY           SKY/WX    TMP DP  RH WIND       PRES   REMARKS
CRAIG          LGT SNOW   4  -1  80 W9        29.59R VSB 1   WCI -10
HAYDEN         LGT SNOW   4   0  83 W8        29.55R VSB 1   WCI  -9
MEEKER         CLOUDY     9  -2  61 N6        29.54R WCI  -1
RANGELY        SNOW       8   4  82 E31G37    29.61R VSB 1/2 WCI -15
RABBIT EARS PA LGT SNOW  10   7  85 W13G21    29.32R WCI  -5
STEAMBOAT SPGS CLOUDY     5   1  86 CALM      29.50S
WALDEN         CLOUDY     0  -6  78 N17       29.40F WCI -21
$$

COZ006>008-011-200300-
...WEST CENTRAL VALLEYS...

CITY           SKY/WX    TMP DP  RH WIND       PRES   REMARKS
GRAND JUNCTION FAIR      34  27  75 S6        29.47R WCI  29
MONTROSE       CLOUDY    30  21  69 SW14G26   29.58R WCI  19
EAGLE          LGT SNOW  27  22  81 SW13      29.47R WCI  16
RIFLE          CLOUDY    26  22  84 W7        29.47R WCI  18
DELTA          CLOUDY    35  25  68 S14G21    29.56R WCI  25
NUCLA          FAIR      30  21  69 S14G20    29.57R WCI  20
$$

COZ017>023-064>068-200300-
...SOUTHWEST COLORADO...

CITY           SKY/WX    TMP DP  RH WIND       PRES   REMARKS
DURANGO        FLURRIES  28  25  88 W18G26    29.56R WCI  15
CORTEZ         CLOUDY    27  25  92 E5        29.58F WCI  22
PAGOSA SPRINGS SNOW      30  29  96 SW15G22   29.52R VSB 1/2 WCI  19
TELLURIDE      LGT SNOW  18  14  84 W14G30    29.52R WCI   5
WOLF CREEK PAS CLOUDY    14  14 100 MISG      29.41R
$$

COZ009-010-012-014-032>034-037-058>063-200300-
...CENTRAL COLORADO...

CITY           SKY/WX    TMP DP  RH WIND       PRES   REMARKS
ASPEN          LGT SNOW  23  21  92 N8        29.42R VSB 1   WCI  14
BUENA VISTA    LGT SNOW  30  28  90 S13       29.34R WCI  20
COPPER MTN     HVY SNOW  19  14  79 MISG      29.31F VSB 1/4
BERTHOUD PASS  SNOW      12   1  62 N7G21     29.31S VSB 1/2 WCI   2
COTTONWOOD PAS LGT SNOW  30  27  86 W9        29.35R WCI  22
GUNNISON       FLURRIES  25  20  81 W8        29.46R WCI  16
GRANBY         LGT SNOW  25  22  91 SW3       29.35R
KREMMLING      LGT SNOW  30  21  69 N9        29.39R WCI  22
LEADVILLE      SNOW      20  19  96 NW12G20   29.34R VSB 1/2 WCI   8
MONARCH PASS     N/A     18  14  86 MISG      29.42R
SALIDA         CLOUDY    33  31  92 SW7       29.42F WCI  27
SUNLIGHT       HVY SNOW  12   9  85 SW20G30   29.41R VSB 1/4 WCI  -6
WILKERSON PASS HVY SNOW  21  18  86 SW12G21   29.37R VSB 1/4 WCI   9
$$

COZ069>075-200300-
...SAN LUIS VALLEY/SANGRE DE CRISTO MOUNTAINS...

CITY           SKY/WX    TMP DP  RH WIND       PRES   REMARKS
ALAMOSA        FAIR      33  28  81 SW25G35   29.44S WCI  20
DEL NORTE      CLOUDY    33  24  71 SW30G38   29.45R WCI  19
LA VETA PASS   CLOUDY    28  23  80 S31G58    29.55F WCI  12
SAGUACHE       LGT SNOW  32  28  86 SW22G29   29.43S WCI  19
$$

COZ035-036-038>040-200300-
...NORTHERN COLORADO FRONT RANGE...

CITY           SKY/WX    TMP DP  RH WIND       PRES   REMARKS
DENVER INTL AP LGT SNOW   8   4  83 NE14      29.62R VSB 3/4 WCI  -8
AURORA         LGT SNOW   8   6  88 NE7       29.60R FOG     WCI  -3
FRONT RANGE AP LGT SNOW  10   7  85 E10       29.62R WCI  -3
ERIE MUNI ARPT LGT SNOW  11   8  87 NE5       29.72R WCI   3
BOULDER MUN AP HVY SNOW  12  10  92 NE5       29.65R VSB 1/4 WCI   4
CENTENNIAL     FLURRIES   9   5  84 NE5       29.59R WCI   1
BROOMFIELD     SNOW      10   7  85 NE5       29.62R VSB 1/2 WCI   2
FORT COLLINS   SNOW       9   7  92 E8        29.69R VSB 1/2 WCI  -4
LONGMONT       SNOW      13   9  83 NE7       29.68R VSB 1/2 WCI   3
$$

COZ041-046-047-076>085-087-088-200300-
...PIKES PEAK/PALMER DIVIDE AND SOUTHERN FOOTHILLS...

CITY           SKY/WX    TMP DP  RH WIND       PRES   REMARKS
COLO. SPRINGS  FLURRIES  19  14  81 S6        29.54R WCI  11
A. F. ACADEMY  FLURRIES  15  13  91 N6        29.51R WCI   7
SCHRIEVER AFB  NOT AVBL
CHEYENNE MTN   FLURRIES  16  15  95 S8        29.46R WCI   5
ELLICOTT         N/A    N/A N/A N/A SE7       29.52R
FALCON         CLOUDY    19  15  88 MISG      29.52R
FORT CARSON    CLOUDY    20  14  78 W5        29.55R WCI  13
LIMON          CLOUDY    13  10  88 E12       29.60R WCI  -1
MONUMENT HILL  LGT SNOW   9   5  85 N8        29.51R WCI  -4
CANON CITY     CLOUDY    21  19  93 E7        29.55R WCI  13
WALSENBURG     NOT AVBL
TRINIDAD       CLOUDY    25  19  78 N5        29.49R WCI  19
$$

COZ042>045-048>051-090-091-200300-
...NORTHEAST COLORADO...

CITY           SKY/WX    TMP DP  RH WIND       PRES   REMARKS
GREELEY ARPT   LGT SNOW   9   5  85 E12       29.71R FOG     WCI  -6
AKRON          FLURRIES   8   5  87 NE14      29.67R WCI  -8
BURLINGTON     LGT SNOW  13  10  88 NE13      29.69R FOG     WCI  -2
WRAY           FLURRIES  12   9  85 NE12      29.76R WCI  -2
YUMA           NOT AVBL
STERLING       CLOUDY    10   5  79 NE14      29.75R WCI  -5
HOLYOKE        FLURRIES  14   9  79 NE13      29.78R WCI   0
FORT MORGAN    LGT SNOW   8   2  78 N17       29.72R WCI -11
$$

COZ086-089-092>099-200300-
...SOUTHEAST COLORADO...

CITY           SKY/WX    TMP DP  RH WIND       PRES   REMARKS
PUEBLO         SNOW      24  19  81 CALM      29.56R VSB 1/2
LA JUNTA       CLOUDY    30  17  58 E24G32    29.54R WCI  16
LAMAR          MOCLDY    28  14  55 E20G25    29.59R WCI  15
SPRINGFIELD      N/A     28  19  69 E15       29.55F WCI  16
$$




USA.gov is the U.S. government's official web portal to all federal, state and local government web resources and services.